Regional Weather Roundup
Issued by NWS Charleston, WV

Home | Current Version | Previous Version | Graphics & Text | Print | Product List | Glossary On
Versions: 1 2 3 4 5 6 7 8 9 10 11 12 13 14 15 16 17 18 19 20 21 22 23 24 25 26 27 28 29 30 31 32 33 34 35 36 37 38 39 40 41 42 43 44 45 46 47
000
ASUS41 KRLX 190310
RWRRLX
West Virginia Regional Weather Roundup
National Weather Service Charleston WV
1000 PM EST THU DEC 18 2014

Note: "fair" indicates few or no clouds below 12,000 feet with no
significant weather and/or obstructions to visibility.

WVZ003-190400-
Northern Panhandle of West Virginia

CITY           SKY/WX    TMP DP  RH WIND       PRES   REMARKS
WHEELING       CLOUDY    27  21  78 W6        30.15S
$$

WVZ009-190400-
Northwest West Virginia

CITY           SKY/WX    TMP DP  RH WIND       PRES   REMARKS
PARKERSBURG    CLOUDY    29  21  72 W3        30.23R
$$

WVZ006-190400-
Western West Virginia

CITY           SKY/WX    TMP DP  RH WIND       PRES   REMARKS
HUNTINGTON     CLOUDY    30  22  72 CALM      30.20S
$$

WVZ015-190400-
West Central West Virginia

CITY           SKY/WX    TMP DP  RH WIND       PRES   REMARKS
CHARLESTON     CLOUDY    30  22  72 NW3       30.20R
$$

WVZ022-031-190400-
North Central West Virginia

CITY           SKY/WX    TMP DP  RH WIND       PRES   REMARKS
CLARKSBURG     CLOUDY    27  23  85 SW6       30.16S
MORGANTOWN     LGT SNOW  27  21  78 SW5       30.16S
$$

WVZ025-035-042-045-190400-
Southern West Virginia

CITY           SKY/WX    TMP DP  RH WIND       PRES   REMARKS
BECKLEY        CLOUDY    28  22  78 N5        30.09S
LOGAN          CLOUDY    30  25  80 CALM      30.15R
BLUEFIELD      CLOUDY    32  21  64 W7        30.08R
LEWISBURG      CLOUDY    32  23  69 W8        30.09R
$$

WVZ047-190400-
Northern Mountains of West Virginia

CITY           SKY/WX    TMP DP  RH WIND       PRES   REMARKS
ELKINS         CLOUDY    26  22  84 NW5       30.12R
$$

WVZ052-190400-
Eastern Panhandle of West Virginia

CITY           SKY/WX    TMP DP  RH WIND       PRES   REMARKS
MARTINSBURG    CLOUDY    34  20  56 NW6       30.11F
PETERSBURG     CLOUDY    32  22  67 SE5       30.12S
$$


USA.gov is the U.S. government's official web portal to all federal, state and local government web resources and services.